TimeCST,TemperatureF,Dew PointF,Humidity,Sea Level PressureIn,VisibilityMPH,Wind Direction,Wind SpeedMPH,Gust SpeedMPH,PrecipitationIn,Events,Conditions,WindDirDegrees,DateUTC
12:58 AM,36.3,33.4,89,30.29,10.0,NE,4.6,-,N/A,,Clear,50,2013-12-19 06:58:00
1:58 AM,35.8,32.9,89,30.29,10.0,NNE,1.2,-,N/A,,Clear,30,2013-12-19 07:58:00
2:58 AM,33.1,30.7,91,30.29,10.0,NE,4.6,-,N/A,,Clear,40,2013-12-19 08:58:00
3:58 AM,34.2,31.5,90,30.28,10.0,NNE,2.3,-,N/A,,Clear,30,2013-12-19 09:58:00
4:58 AM,33.1,30.4,90,30.28,10.0,NE,5.8,-,N/A,,Clear,50,2013-12-19 10:58:00
5:58 AM,32.9,30.2,90,30.30,10.0,NE,4.6,-,N/A,,Clear,50,2013-12-19 11:58:00
6:58 AM,32.4,29.5,89,30.31,10.0,NE,4.6,-,N/A,,Clear,50,2013-12-19 12:58:00
7:58 AM,39.2,34.5,83,30.31,10.0,ENE,4.6,-,N/A,,Clear,70,2013-12-19 13:58:00
8:58 AM,48.0,34.3,59,30.32,10.0,East,4.6,-,N/A,,Clear,80,2013-12-19 14:58:00
9:58 AM,56.1,34.3,44,30.32,10.0,ESE,9.2,-,N/A,,Clear,110,2013-12-19 15:58:00
10:58 AM,60.4,32.2,35,30.30,10.0,ESE,6.9,-,N/A,,Clear,110,2013-12-19 16:58:00
11:58 AM,62.8,31.3,31,30.26,10.0,Variable,4.6,-,N/A,,Clear,0,2013-12-19 17:58:00
12:58 PM,64.2,31.6,30,30.23,10.0,SSE,2.3,-,N/A,,Clear,150,2013-12-19 18:58:00
1:58 PM,66.0,32.4,29,30.21,10.0,SE,4.6,-,N/A,,Clear,130,2013-12-19 19:58:00
2:58 PM,64.9,32.9,30,30.21,10.0,SE,2.3,-,N/A,,Clear,130,2013-12-19 20:58:00
3:58 PM,62.2,37.8,40,30.22,10.0,SE,2.3,-,N/A,,Clear,140,2013-12-19 21:58:00
4:58 PM,57.0,37.6,48,30.21,10.0,ESE,4.6,-,N/A,,Clear,110,2013-12-19 22:58:00
5:58 PM,51.6,37.8,59,30.22,10.0,Variable,3.5,-,N/A,,Clear,0,2013-12-19 23:58:00
6:58 PM,49.5,37.9,65,30.22,10.0,Variable,3.5,-,N/A,,Clear,0,2013-12-20 00:58:00
7:58 PM,48.4,37.2,65,30.21,10.0,Variable,4.6,-,N/A,,Clear,0,2013-12-20 01:58:00
8:58 PM,47.1,37.9,70,30.22,10.0,ENE,2.3,-,N/A,,Clear,70,2013-12-20 02:58:00
9:58 PM,45.1,37.8,75,30.21,10.0,ESE,3.5,-,N/A,,Clear,110,2013-12-20 03:58:00
10:58 PM,44.2,36.5,74,30.19,10.0,Variable,3.5,-,N/A,,Clear,0,2013-12-20 04:58:00
11:58 PM,40.1,37.0,89,30.18,10.0,ESE,2.3,-,N/A,,Clear,120,2013-12-20 05:58:00